Weather observations for the past three days for
Newberry, Luce County Airport
| Date | Time (edt) | Wind (mph) | Vis. (mi.) | Weather | Sky Cond. | Temperature (ºF) | Relative Humidity | Wind Chill (°F) | Heat Index (°F) | Pressure | Precipitation (in) | ||||||
|---|---|---|---|---|---|---|---|---|---|---|---|---|---|---|---|---|---|
| Air | Dwpt | 6 hour | altimeter (in) | sea level (mb) | 1 hr | 3 hr | 6 hr | ||||||||||
| Max. | Min. | ||||||||||||||||
| 31 | 19:55 | SE 9 | 10.00 | Overcast | SCT023 OVC029 | 73.4 | 69.8 | 80.6 | 73.8 | 89% | 29.87 | 0.0 | |||||
| 31 | 19:35 | SE 7 | 10.00 | Overcast | OVC021 | 73.4 | 69.8 | 89% | 29.87 | 0.0 | |||||||
| 31 | 19:15 | SE 10 | 10.00 | Overcast | OVC021 | 75.2 | 69.8 | 83% | 75 | 29.86 | 0.0 | ||||||
| 31 | 18:35 | SE 6 | 10.00 | Mostly Cloudy | FEW020 BKN055 BKN070 | 77 | 69.8 | 79% | 79 | 29.86 | 0.0 | ||||||
| 31 | 18:15 | SE 6 | 10.00 | Overcast | FEW020 BKN055 OVC070 | 77 | 69.8 | 79% | 79 | 29.87 | 0.0 | ||||||
| 31 | 17:55 | S 6 | 10.00 | Overcast | SCT029 OVC065 | 77 | 68 | 74% | 79 | 29.87 | 0.0 | ||||||
| 31 | 17:35 | S 7 | 10.00 | Overcast | OVC029 | 77 | 68 | 74% | 79 | 29.87 | 0.0 | ||||||
| 31 | 17:15 | SE 8 | 10.00 | Overcast | FEW020 OVC029 | 77 | 68 | 74% | 79 | 29.86 | 0.0 | ||||||
| 31 | 16:55 | S 8 | 10.00 | Overcast | OVC029 | 77 | 68 | 74% | 79 | 29.86 | 0.0 | ||||||
| 31 | 16:35 | S 8 | 10.00 | Overcast | OVC027 | 77 | 68 | 74% | 79 | 29.86 | 0.0 | ||||||
| 31 | 16:15 | S 10 | 10.00 | Overcast | OVC025 | 78.8 | 68 | 70% | 81 | 29.86 | 0.0 | ||||||
| 31 | 15:55 | S 7 | 10.00 | Overcast | OVC025 | 78.8 | 68 | 70% | 81 | 29.87 | 0.0 | ||||||
| 31 | 15:35 | S 12 | 10.00 | Overcast | BKN023 BKN035 OVC070 | 78.8 | 68 | 70% | 81 | 29.88 | 0.0 | ||||||
| 31 | 15:15 | S 8 | 10.00 | Overcast | BKN023 BKN027 OVC070 | 80.6 | 69.8 | 70% | 84 | 29.89 | 0.0 | ||||||
| 31 | 14:55 | S 9 | 10.00 | Overcast | BKN019 OVC028 | 78.8 | 69.8 | 74% | 81 | 29.89 | 0.0 | ||||||
| 31 | 14:35 | SE 9 | 9.00 | Overcast | BKN017 OVC075 | 78.8 | 69.8 | 74% | 81 | 29.88 | 0.0 | ||||||
| 31 | 14:15 | SE 7 | 10.00 | Overcast | BKN015 OVC019 | 77 | 69.8 | 79% | 79 | 29.89 | 0.0 | ||||||
| 31 | 13:55 | Vrbl 7 | 10.00 | Overcast | BKN010 OVC014 | 75.2 | 68 | 75.2 | 65.7 | 78% | 76 | 29.9 | 0.0 | ||||
| 31 | 13:35 | S 8 | 10.00 | Overcast | OVC006 | 73.4 | 69.8 | 89% | 29.91 | 0.0 | |||||||
| 31 | 13:15 | S 10 | 10.00 | Overcast | OVC006 | 73.4 | 69.8 | 89% | 29.91 | 0.0 | |||||||
| 31 | 12:55 | SE 9 | 10.00 | Overcast | OVC004 | 71.6 | 68 | 88% | 29.91 | 0.0 | |||||||
| 31 | 12:35 | SE 10 | 10.00 | Overcast | OVC004 | 69.8 | 68 | 94% | 29.91 | 0.0 | |||||||
| 31 | 12:15 | SE 8 | 8.00 | Overcast | OVC004 | 68 | 66.2 | 94% | 29.92 | 0.0 | |||||||
| 31 | 11:55 | E 7 | 10.00 | Overcast | OVC002 | 68 | 66.2 | 94% | 29.92 | 0.0 | |||||||
| 31 | 11:35 | E 8 | 7.00 | Fog/Mist | OVC002 | 66.2 | 66.2 | 100% | 29.92 | 0.0 | |||||||
| 31 | 11:15 | E 7 | 4.00 | Fog/Mist | OVC002 | 66.2 | 66.2 | 100% | 29.93 | 0.0 | |||||||
| 31 | 10:55 | E 9 | 2.50 | Fog/Mist | OVC002 | 66.2 | 66.2 | 100% | 29.92 | 0.0 | |||||||
| 31 | 10:35 | SE 6 | 1.75 | Fog/Mist | OVC002 | 66.2 | 66.2 | 100% | 29.94 | 0.0 | |||||||
| 31 | 10:15 | E 8 | 1.25 | Fog/Mist | OVC002 | 66.2 | 66.2 | 100% | 29.94 | 0.0 | |||||||
| 31 | 09:55 | E 7 | 1.75 | Fog/Mist | OVC002 | 66.2 | 66.2 | 100% | 29.94 | 0.0 | |||||||
| 31 | 09:35 | SE 8 | 2.50 | Fog/Mist | OVC002 | 66.2 | 66.2 | 100% | 29.94 | 0.0 | |||||||
| 31 | 09:15 | SE 9 | 4.00 | Fog/Mist | OVC002 | 66.2 | 64.4 | 94% | 29.94 | 0.0 | |||||||
| 31 | 08:55 | SE 8 | 4.00 | Fog/Mist | OVC004 | 66.2 | 64.4 | 94% | 29.95 | 0.0 | |||||||
| 31 | 08:35 | SE 7 | 6.00 | Fog/Mist | OVC004 | 66.2 | 64.4 | 94% | 29.95 | 0.0 | |||||||
| 31 | 08:15 | SE 7 | 6.00 | Fog/Mist | OVC004 | 66.2 | 64.4 | 94% | 29.94 | 0.0 | |||||||
| 31 | 07:55 | SE 9 | 6.00 | Fog/Mist | OVC004 | 66.2 | 64.4 | 65.7 | 64.8 | 94% | 29.93 | 0.0 | |||||
| 31 | 07:35 | SE 8 | 7.00 | Overcast | OVC004 | 66.2 | 64.4 | 94% | 29.92 | 0.0 | |||||||
| 31 | 07:15 | SE 10 | 8.00 | Overcast | OVC004 | 66.2 | 64.4 | 94% | 29.92 | 0.0 | |||||||
| 31 | 06:35 | SE 15 | 10.00 | Overcast | OVC004 | 66.2 | 64.4 | 94% | 29.91 | 0.0 | |||||||
| 31 | 06:15 | SE 12 | 10.00 | Overcast | OVC004 | 66.2 | 64.4 | 94% | 29.93 | 0.0 | |||||||
| 31 | 05:55 | E 7 | 9.00 | Overcast | OVC004 | 66.2 | 64.4 | 94% | 29.95 | 0.0 | |||||||
| 31 | 05:35 | E 5 | 8.00 | Overcast | OVC004 | 64.4 | 64.4 | 100% | 29.96 | 0.0 | |||||||
| 31 | 05:15 | E 6 | 7.00 | Overcast | OVC004 | 64.4 | 64.4 | 100% | 29.96 | 0.0 | |||||||
| 31 | 04:55 | E 6 | 7.00 | Overcast | OVC004 | 64.4 | 64.4 | 100% | 29.97 | 0.0 | |||||||
| 31 | 04:35 | E 3 | 8.00 | Overcast | OVC004 | 64.4 | 64.4 | 100% | 29.98 | 0.0 | |||||||
| 31 | 04:15 | E 2 | 8.00 | Overcast | OVC004 | 64.4 | 64.4 | 100% | 29.98 | 0.0 | |||||||
| 31 | 03:55 | E 5 | 8.00 | Overcast | OVC004 | 64.4 | 64.4 | 100% | 29.98 | 0.0 | |||||||
| 31 | 03:35 | SE 5 | 8.00 | Overcast | OVC004 | 64.4 | 64.4 | 100% | 29.99 | 0.0 | |||||||
| 31 | 03:15 | E 7 | 9.00 | Overcast | OVC004 | 64.4 | 64.4 | 100% | 29.98 | 0.0 | |||||||
| 31 | 02:55 | E 5 | 9.00 | Overcast | OVC004 | 64.4 | 64.4 | 100% | 29.98 | 0.0 | |||||||
| 31 | 02:35 | E 7 | 10.00 | Overcast | OVC004 | 64.4 | 64.4 | 100% | 29.98 | 0.0 | |||||||
| 31 | 02:15 | E 7 | 10.00 | Overcast | OVC006 | 64.4 | 64.4 | 100% | 29.99 | 0.0 | |||||||
| 31 | 01:55 | E 7 | 10.00 | Overcast | OVC006 | 64.4 | 64.4 | 66.7 | 64.8 | 100% | 29.99 | 0.0 | |||||
| 31 | 01:35 | E 7 | 10.00 | Overcast | OVC006 | 64.4 | 64.4 | 100% | 29.99 | 0.0 | |||||||
| 31 | 01:15 | E 8 | 10.00 | Overcast | OVC006 | 64.4 | 64.4 | 100% | 30 | 0.0 | |||||||
| 31 | 00:55 | E 9 | 10.00 | Overcast | OVC006 | 64.4 | 62.6 | 94% | 30 | 0.0 | |||||||
| 31 | 00:35 | E 7 | 10.00 | Overcast | OVC006 | 64.4 | 62.6 | 94% | 30 | 0.0 | |||||||
| 31 | 00:15 | E 8 | 10.00 | Overcast | OVC006 | 64.4 | 62.6 | 94% | 30 | 0.0 | |||||||
| 30 | 23:55 | E 10 | 10.00 | Overcast | OVC008 | 64.4 | 62.6 | 94% | 30 | 0.0 | |||||||
| 30 | 23:35 | E 9 | 10.00 | Overcast | OVC008 | 64.4 | 62.6 | 94% | 30 | 0.0 | |||||||
| 30 | 23:15 | E 9 | 10.00 | Overcast | OVC008 | 64.4 | 62.6 | 94% | 30 | 0.0 | |||||||
| 30 | 22:55 | E 8 | 10.00 | Overcast | OVC008 | 64.4 | 62.6 | 94% | 30 | 0.0 | |||||||
| 30 | 22:35 | E 8 | 10.00 | Overcast | OVC008 | 66.2 | 62.6 | 88% | 29.99 | 0.0 | |||||||
| 30 | 22:15 | E 9 | 10.00 | Overcast | OVC010 | 66.2 | 62.6 | 88% | 29.99 | 0.0 | |||||||
| 30 | 21:55 | E 10 | 10.00 | Overcast | OVC010 | 66.2 | 62.6 | 88% | 29.99 | 0.0 | |||||||
| 30 | 21:35 | E 9 | 10.00 | Overcast | OVC010 | 66.2 | 64.4 | 94% | 29.99 | 0.0 | |||||||
| 30 | 21:15 | E 8 | 10.00 | Overcast | OVC010 | 66.2 | 64.4 | 94% | 29.99 | 0.0 | |||||||
| 30 | 20:55 | E 7 | 10.00 | Overcast | OVC012 | 66.2 | 64.4 | 94% | 29.99 | 0.0 | |||||||
| 30 | 20:35 | E 8 | 10.00 | Overcast | OVC012 | 66.2 | 64.4 | 94% | 29.98 | 0.0 | |||||||
| 30 | 20:15 | E 9 | 10.00 | Overcast | OVC010 | 66.2 | 64.4 | 94% | 29.98 | 0.0 | |||||||
| 30 | 19:55 | E 7 | 10.00 | Overcast | OVC010 | 66.2 | 64.4 | 69.4 | 66.7 | 94% | 29.99 | 0.0 | |||||
| 30 | 19:35 | E 7 | 10.00 | Overcast | OVC010 | 66.2 | 64.4 | 94% | 29.99 | 0.0 | |||||||
| 30 | 19:15 | E 8 | 10.00 | Overcast | OVC010 | 68 | 64.4 | 88% | 29.99 | 0.0 | |||||||
| 30 | 18:55 | SE 7 | 10.00 | Overcast | BKN010 OVC015 | 68 | 64.4 | 88% | 29.99 | 0.0 | |||||||
| 30 | 18:35 | E 10 | 10.00 | Overcast | OVC012 | 68 | 64.4 | 88% | 29.99 | 0.0 | |||||||
| 30 | 18:15 | E 9 | 10.00 | Overcast | OVC010 | 68 | 64.4 | 88% | 29.99 | 0.0 | |||||||
| 30 | 17:55 | E 8 | 10.00 | Overcast | OVC010 | 68 | 64.4 | 88% | 29.98 | 0.0 | |||||||
| 30 | 17:35 | E 9 | 10.00 | Overcast | OVC010 | 68 | 64.4 | 88% | 29.98 | 0.0 | |||||||
| 30 | 17:15 | E 9 | 10.00 | Overcast | OVC012 | 68 | 64.4 | 88% | 29.98 | 0.0 | |||||||
| 30 | 16:55 | E 8 | 10.00 | Overcast | OVC012 | 68 | 64.4 | 88% | 29.98 | 0.0 | |||||||
| 30 | 16:35 | E 9 | 10.00 | Overcast | OVC010 | 68 | 64.4 | 88% | 29.98 | 0.0 | |||||||
| 30 | 16:15 | E 9 | 10.00 | Overcast | OVC010 | 68 | 64.4 | 88% | 29.98 | 0.0 | |||||||
| 30 | 15:55 | E 8 | 10.00 | Overcast | OVC010 | 68 | 64.4 | 88% | 29.98 | 0.0 | |||||||
| 30 | 15:35 | E 9 | 10.00 | Overcast | OVC008 | 68 | 66.2 | 94% | 29.98 | 0.0 | |||||||
| 30 | 15:15 | E 9 | 5.00 | Fog/Mist | OVC010 | 68 | 64.4 | 88% | 29.98 | 0.0 | |||||||
| 30 | 14:55 | E 9 | 10.00 | Overcast | OVC010 | 68 | 66.2 | 94% | 29.98 | 0.0 | |||||||
| 30 | 14:35 | E 8 | 10.00 | Overcast | BKN011 OVC017 | 68 | 66.2 | 94% | 29.98 | 0.0 | |||||||
| 30 | 14:15 | E 7 | 10.00 | Overcast | BKN010 OVC016 | 68 | 66.2 | 94% | 29.99 | 0.0 | |||||||
| 30 | 13:55 | E 9 | 10.00 | Overcast | OVC008 | 69.8 | 64.4 | 69.3 | 63.5 | 83% | 29.98 | 0.0 | |||||
| 30 | 13:35 | E 7 | 10.00 | Overcast | OVC008 | 68 | 64.4 | 88% | 29.98 | 0.0 | |||||||
| 30 | 13:15 | SE 8 | 10.00 | Overcast | OVC006 | 68 | 64.4 | 88% | 29.98 | 0.0 | |||||||
| 30 | 12:55 | E 8 | 10.00 | Overcast | OVC006 | 68 | 64.4 | 88% | 29.97 | 0.0 | |||||||
| 30 | 12:35 | E 9 | 10.00 | Overcast | OVC006 | 68 | 66.2 | 94% | 29.98 | 0.0 | |||||||
| 30 | 12:15 | E 7 | 10.00 | Overcast | OVC004 | 66.2 | 64.4 | 94% | 29.99 | 0.0 | |||||||
| 30 | 11:55 | E 9 | 10.00 | Overcast | OVC004 | 66.2 | 64.4 | 94% | 29.99 | 0.0 | |||||||
| 30 | 11:35 | E 9 | 10.00 | Overcast | OVC004 | 64.4 | 64.4 | 100% | 29.99 | 0.0 | |||||||
| 30 | 11:15 | E 10 | 10.00 | Overcast | OVC002 | 64.4 | 64.4 | 100% | 29.99 | 0.0 | |||||||
| 30 | 10:55 | E 9 | 8.00 | Overcast | OVC002 | 64.4 | 64.4 | 100% | 29.99 | 0.0 | |||||||
| 30 | 10:35 | E 9 | 6.00 | Fog/Mist | OVC002 | 64.4 | 64.4 | 100% | 29.99 | 0.0 | |||||||
| 30 | 10:15 | E 9 | 4.00 | Fog/Mist | OVC002 | 64.4 | 62.6 | 94% | 29.99 | 0.0 | |||||||
| 30 | 09:55 | E 7 | 2.50 | Light Drizzle Fog/Mist | OVC002 | 64.4 | 64.4 | 100% | 29.99 | 0.0 | |||||||
| 30 | 09:35 | E 9 | 4.00 | Fog/Mist | OVC002 | 64.4 | 64.4 | 100% | 29.98 | 0.0 | |||||||
| 30 | 09:15 | E 7 | 7.00 | Overcast | OVC002 | 64.4 | 64.4 | 100% | 29.98 | 0.0 | |||||||
| 30 | 08:55 | E 7 | 9.00 | Overcast | BKN002 OVC016 | 64.4 | 64.4 | 100% | 29.98 | 0.0 | |||||||
| 30 | 08:35 | E 7 | 10.00 | Overcast | SCT002 OVC016 | 64.4 | 62.6 | 94% | 29.98 | 0.0 | |||||||
| 30 | 08:15 | E 6 | 8.00 | Overcast | BKN002 OVC016 | 64.4 | 62.6 | 94% | 29.97 | 0.0 | |||||||
| 30 | 07:55 | SE 7 | 7.00 | Overcast | OVC002 | 64.4 | 62.6 | 64.6 | 63.3 | 94% | 29.97 | 0.0 | |||||
| 30 | 07:35 | E 7 | 5.00 | Fog/Mist | OVC002 | 64.4 | 62.6 | 94% | 29.97 | 0.0 | |||||||
| 30 | 07:15 | E 6 | 5.00 | Fog/Mist | OVC002 | 64.4 | 62.6 | 94% | 29.97 | 0.0 | |||||||
| 30 | 06:55 | E 7 | 4.00 | Light Drizzle Fog/Mist | OVC002 | 62.6 | 62.6 | 100% | 29.96 | 0.0 | 0.02 | ||||||
| 30 | 06:35 | E 6 | 2.00 | Light Drizzle Fog/Mist | OVC004 | 62.6 | 62.6 | 100% | 29.97 | 0.0 | |||||||
| 30 | 06:15 | E 5 | 1.75 | Light Rain Fog/Mist | OVC004 | 62.6 | 62.6 | 100% | 29.97 | 0.0 | |||||||
| 30 | 05:55 | E 3 | 3.00 | Light Drizzle Fog/Mist | BKN007 BKN019 OVC024 | 64.4 | 62.6 | 94% | 29.98 | 0.0 | 0.01 | ||||||
| 30 | 05:35 | SE 3 | 3.00 | Fog/Mist | SCT007 BKN023 OVC029 | 64.4 | 62.6 | 94% | 29.98 | 0.0 | |||||||
| 30 | 05:15 | E 3 | 10.00 | Overcast | BKN007 OVC033 | 64.4 | 62.6 | 94% | 29.98 | 0.0 | |||||||
| 30 | 04:55 | E 3 | 10.00 | Overcast | FEW007 OVC035 | 64.4 | 62.6 | 94% | 29.98 | 0.0 | |||||||
| 30 | 04:35 | SE 3 | 10.00 | Overcast | FEW005 SCT035 OVC048 | 64.4 | 62.6 | 94% | 29.98 | 0.0 | |||||||
| 30 | 04:15 | S 8 | 10.00 | Overcast | BKN005 OVC048 | 64.4 | 62.6 | 94% | 29.99 | 0.0 | |||||||
| 30 | 03:55 | Vrbl 6 | 10.00 | Overcast | BKN048 OVC055 | 64.4 | 62.6 | 94% | 29.99 | 0.0 | |||||||
| 30 | 03:35 | S 7 | 10.00 | Overcast | FEW005 BKN046 OVC055 | 64.4 | 62.6 | 94% | 29.99 | 0.0 | |||||||
| 30 | 03:15 | S 8 | 10.00 | Overcast | OVC005 | 64.4 | 62.6 | 94% | 29.99 | 0.0 | |||||||
| 30 | 02:55 | S 7 | 10.00 | Overcast | OVC005 | 64.4 | 62.6 | 94% | 30 | 0.0 | |||||||
| 30 | 02:35 | S 7 | 10.00 | Overcast | OVC005 | 64.4 | 62.6 | 94% | 30.01 | 0.0 | |||||||
| 30 | 02:15 | S 6 | 10.00 | Overcast | BKN005 OVC055 | 64.4 | 62.6 | 94% | 30.01 | 0.0 | |||||||
| 30 | 01:55 | S 5 | 10.00 | Overcast | FEW046 OVC070 | 64.4 | 62.6 | 66.4 | 63.9 | 94% | 30.02 | 0.0 | |||||
| 30 | 01:35 | S 5 | 10.00 | Overcast | SCT044 OVC060 | 64.4 | 62.6 | 94% | 30.02 | 0.0 | |||||||
| 30 | 01:15 | S 7 | 10.00 | Overcast | OVC060 | 64.4 | 62.6 | 94% | 30.02 | 0.0 | |||||||
| 30 | 00:55 | SW 10 | 10.00 | Overcast | SCT011 SCT035 OVC060 | 64.4 | 62.6 | 94% | 30.03 | 0.0 | |||||||
| 30 | 00:35 | SW 10 | 10.00 | Overcast | OVC011 | 64.4 | 62.6 | 94% | 30.03 | 0.0 | |||||||
| 30 | 00:15 | SW 10 | 10.00 | Overcast | OVC011 | 64.4 | 62.6 | 94% | 30.03 | 0.0 | |||||||
| 29 | 23:55 | SW 10 | 10.00 | Overcast | BKN008 BKN016 OVC027 | 64.4 | 64.4 | 100% | 30.03 | 0.0 | |||||||
| 29 | 23:35 | SW 7 | 10.00 | Overcast | OVC008 | 64.4 | 64.4 | 100% | 30.03 | 0.0 | |||||||
| 29 | 23:15 | SW 10 | 10.00 | Overcast | BKN010 OVC055 | 64.4 | 64.4 | 100% | 30.02 | 0.0 | |||||||
| 29 | 22:55 | SW 10 | 10.00 | Light Drizzle | OVC010 | 64.4 | 64.4 | 100% | 30.02 | 0.0 | |||||||
| 29 | 22:35 | SW 10 | 10.00 | Light Drizzle | SCT010 OVC050 | 64.4 | 62.6 | 94% | 30.02 | 0.0 | |||||||
| 29 | 22:15 | S 12 | 10.00 | Overcast | BKN050 BKN070 OVC095 | 64.4 | 62.6 | 94% | 30.02 | 0.0 | |||||||
| 29 | 21:55 | S 10 | 10.00 | Overcast | BKN050 OVC095 | 64.4 | 62.6 | 94% | 30.03 | 0.0 | |||||||
| 29 | 21:35 | SW 10 | 10.00 | Overcast | OVC050 | 64.4 | 62.6 | 94% | 30.02 | 0.0 | |||||||
| 29 | 21:15 | SW 10 | 10.00 | Overcast | OVC048 | 64.4 | 62.6 | 94% | 30.01 | 0.0 | |||||||
| 29 | 20:55 | SW 9 | 10.00 | Light Rain | BKN046 BKN070 OVC090 | 66.2 | 62.6 | 88% | 30.01 | 0.0 | |||||||
| 29 | 20:35 | SW 9 | 10.00 | Overcast | FEW070 OVC090 | 66.2 | 64.4 | 94% | 30 | 0.0 | |||||||
| 29 | 20:15 | SW 6 | 10.00 | Overcast | OVC090 | 66.2 | 64.4 | 94% | 30 | 0.0 | |||||||
| 29 | 19:55 | SW 7 | 10.00 | Light Rain | FEW050 OVC090 | 66.2 | 64.4 | 75.2 | 66.2 | 94% | 30 | 0.0 | |||||
| 29 | 19:35 | SW 9 | 8.00 | Light Rain | OVC080 | 66.2 | 64.4 | 94% | 30 | 0.0 | |||||||
| 29 | 19:15 | SW 9 | 10.00 | Overcast | OVC080 | 68 | 62.6 | 83% | 30 | 0.0 | |||||||
| 29 | 18:55 | SW 10 | 10.00 | Overcast | FEW041 SCT065 OVC080 | 68 | 62.6 | 83% | 30 | 0.0 | |||||||
| 29 | 18:35 | SW 12 | 10.00 | Overcast | SCT041 OVC090 | 69.8 | 62.6 | 78% | 30 | 0.0 | |||||||
| 29 | 18:15 | SW 10 | 10.00 | Overcast | OVC090 | 69.8 | 62.6 | 78% | 30 | 0.0 | |||||||
| 29 | 17:55 | SW 10 | 10.00 | Overcast | FEW049 OVC100 | 69.8 | 62.6 | 78% | 30 | 0.0 | |||||||
| 29 | 17:35 | SW 9 | 10.00 | Overcast | FEW065 OVC110 | 69.8 | 60.8 | 73% | 30 | 0.0 | |||||||
| 29 | 17:15 | SW 13 | 10.00 | Overcast | FEW065 OVC120 | 71.6 | 60.8 | 69% | 30 | 0.0 | |||||||
| 29 | 16:55 | S 10 | 10.00 | Overcast | OVC120 | 71.6 | 60.8 | 69% | 30 | 0.0 | |||||||
| 29 | 16:35 | S 10 | 10.00 | Overcast | OVC120 | 71.6 | 64.4 | 78% | 30 | 0.0 | |||||||
| 29 | 16:15 | S 9 | 10.00 | Mostly Cloudy | BKN120 | 71.6 | 64.4 | 78% | 30.01 | 0.0 | |||||||
| 29 | 15:55 | S 10 | 10.00 | Fair | CLR | 73.4 | 62.6 | 69% | 30.01 | 0.0 | |||||||
| 29 | 15:35 | S 12 | 10.00 | Fair | CLR | 73.4 | 62.6 | 69% | 30.02 | 0.0 | |||||||
| 29 | 15:15 | S 9 | 10.00 | Fair | CLR | 75.2 | 62.6 | 65% | 77 | 30.02 | 0.0 | ||||||
| 29 | 14:55 | S 5 | 10.00 | Fair | CLR | 73.4 | 59 | 61% | 30.02 | 0.0 | |||||||
| 29 | 14:35 | NW 5 | 10.00 | Fair | CLR | 75.2 | 57.2 | 54% | 78 | 30.03 | 0.0 | ||||||
| 29 | 14:15 | W 6 | 10.00 | Fair | CLR | 73.4 | 57.2 | 57% | 30.03 | 0.0 | |||||||
| 29 | 13:55 | SW 5 | 10.00 | Fair | CLR | 73.4 | 57.2 | 75.7 | 61.7 | 57% | 30.03 | 0.0 | |||||
| 29 | 13:35 | SW 6 | 10.00 | Fair | CLR | 75.2 | 55.4 | 50% | 78 | 30.03 | 0.0 | ||||||
| 29 | 13:15 | W 6 | 10.00 | Fair | CLR | 75.2 | 59 | 57% | 78 | 30.04 | 0.0 | ||||||
| 29 | 12:55 | W 3 | 10.00 | Fair | CLR | 73.4 | 59 | 61% | 30.04 | 0.0 | |||||||
| 29 | 12:35 | Vrbl 2 | 10.00 | Fair | CLR | 73.4 | 59 | 61% | 30.05 | 0.0 | |||||||
| 29 | 12:15 | W 6 | 10.00 | Fair | CLR | 73.4 | 59 | 61% | 30.05 | 0.0 | |||||||
| 29 | 11:55 | Vrbl 1 | 10.00 | Fair | CLR | 71.6 | 60.8 | 69% | 30.05 | 0.0 | |||||||
| 29 | 11:35 | Vrbl 2 | 10.00 | Partly Cloudy | FEW010 SCT070 | 69.8 | 62.6 | 78% | 30.05 | 0.0 | |||||||
| 29 | 11:15 | Vrbl 2 | 10.00 | Mostly Cloudy | BKN010 BKN014 BKN070 | 68 | 62.6 | 83% | 30.05 | 0.0 | |||||||
| 29 | 10:55 | Vrbl 1 | 10.00 | Overcast | OVC007 | 66.2 | 62.6 | 88% | 30.05 | 0.0 | |||||||
| 29 | 10:35 | Vrbl 3 | 10.00 | Overcast | OVC005 | 66.2 | 62.6 | 88% | 30.05 | 0.0 | |||||||
| 29 | 10:15 | Vrbl 3 | 10.00 | Overcast | OVC003 | 64.4 | 62.6 | 94% | 30.05 | 0.0 | |||||||
| 29 | 09:55 | W 5 | 7.00 | Fog/Mist | OVC001 | 64.4 | 62.6 | 94% | 30.05 | 0.0 | |||||||
| 29 | 09:35 | Vrbl 2 | 0.50 | Fog | OVC001 | 62.6 | 62.6 | 100% | 30.04 | 0.0 | |||||||
| 29 | 09:15 | W 8 | 0.25 | Fog | OVC001 | 62.6 | 60.8 | 94% | 30.05 | 0.0 | |||||||
| 29 | 08:55 | W 8 | 0.25 | Fog | OVC001 | 62.6 | 62.6 | 100% | 30.04 | 0.0 | |||||||
| 29 | 08:35 | W 9 | 0.50 | Fog | OVC003 | 62.6 | 62.6 | 100% | 30.03 | 0.0 | |||||||
| 29 | 08:15 | W 9 | 4.00 | Fog/Mist | OVC003 | 62.6 | 62.6 | 100% | 30.03 | 0.0 | |||||||
| 29 | 07:55 | SW 8 | 5.00 | Fog/Mist | OVC003 | 62.6 | 62.6 | 62.8 | 52 | 100% | 30.03 | 0.0 | |||||
| 29 | 07:35 | W 7 | 4.00 | Fog/Mist | OVC003 | 62.6 | 62.6 | 100% | 30.03 | 0.0 | |||||||
| 29 | 07:15 | SW 7 | 7.00 | Fog/Mist | OVC003 | 59 | 59 | 100% | 30.03 | 0.0 | |||||||
| 29 | 06:55 | S 6 | 10.00 | Overcast | OVC005 | 55.4 | 55.4 | 100% | 30.03 | 0.0 | |||||||
| 29 | 06:35 | SW 2 | 10.00 | Overcast | OVC005 | 55.4 | 55.4 | 100% | 30.02 | 0.0 | |||||||
| 29 | 06:15 | N 3 | 10.00 | Overcast | OVC007 | 53.6 | 53.6 | 100% | 30.02 | 0.0 | |||||||
| 29 | 05:55 | N 3 | 10.00 | Overcast | OVC009 | 53.6 | 51.8 | 94% | 30.02 | 0.0 | |||||||
| 29 | 05:35 | N 5 | 10.00 | Overcast | OVC011 | 53.6 | 53.6 | 100% | 30.03 | 0.0 | |||||||
| 29 | 05:15 | S 2 | 10.00 | Overcast | OVC011 | 53.6 | 53.6 | 100% | 30.03 | 0.0 | |||||||
| 29 | 04:55 | E 3 | 10.00 | Overcast | OVC011 | 51.8 | 51.8 | 100% | 30.03 | 0.0 | |||||||
| 29 | 04:35 | NE 3 | 10.00 | Overcast | OVC013 | 51.8 | 51.8 | 100% | 30.03 | 0.0 | |||||||
| 29 | 04:15 | S 2 | 10.00 | Overcast | OVC015 | 55.4 | 55.4 | 100% | 30.03 | 0.0 | |||||||
| 29 | 03:55 | S 3 | 10.00 | Mostly Cloudy | SCT015 BKN070 BKN080 | 53.6 | 51.8 | 94% | 30.04 | 0.0 | |||||||
| 29 | 03:35 | E 1 | 10.00 | Overcast | BKN015 BKN080 OVC090 | 51.8 | 51.8 | 100% | 30.04 | 0.0 | |||||||
| 29 | 03:15 | NE 2 | 10.00 | Overcast | SCT015 OVC080 | 53.6 | 53.6 | 100% | 30.05 | 0.0 | |||||||
| 29 | 02:55 | S 3 | 10.00 | Overcast | OVC080 | 57.2 | 55.4 | 94% | 30.05 | 0.0 | |||||||
| 29 | 02:35 | S 6 | 10.00 | Partly Cloudy | FEW050 SCT080 | 55.4 | 55.4 | 100% | 30.05 | 0.0 | |||||||
| 29 | 02:15 | SE 2 | 10.00 | Mostly Cloudy | FEW050 BKN080 | 55.4 | 53.6 | 94% | 30.06 | 0.0 | |||||||
| 29 | 01:55 | SE 3 | 10.00 | Partly Cloudy | FEW050 SCT080 | 55.4 | 53.6 | 64.9 | 54.7 | 94% | 30.07 | 0.0 | |||||
| 29 | 01:35 | SE 2 | 10.00 | Mostly Cloudy | SCT050 SCT065 BKN080 | 55.4 | 53.6 | 94% | 30.07 | 0.0 | |||||||
| 29 | 01:15 | SE 2 | 10.00 | Mostly Cloudy | BKN080 | 55.4 | 55.4 | 100% | 30.08 | 0.0 | |||||||
| 29 | 00:55 | E 1 | 10.00 | Mostly Cloudy | BKN080 | 55.4 | 55.4 | 100% | 30.08 | 0.0 | |||||||
| 29 | 00:35 | SE 2 | 10.00 | Partly Cloudy | SCT080 | 55.4 | 53.6 | 94% | 30.08 | 0.0 | |||||||
| 29 | 00:15 | S 3 | 10.00 | A Few Clouds | FEW080 | 55.4 | 53.6 | 94% | 30.08 | 0.0 | |||||||
| 28 | 23:55 | SE 1 | 10.00 | Fair | CLR | 57.2 | 55.4 | 94% | 30.08 | 0.0 | |||||||
| 28 | 23:35 | S 1 | 1.75 | Fog/Mist | SCT075 | 55.4 | 55.4 | 100% | 30.08 | 0.0 | |||||||
| 28 | 23:15 | SW 2 | 10.00 | Mostly Cloudy | BKN075 | 55.4 | 55.4 | 100% | 30.09 | 0.0 | |||||||
| 28 | 22:55 | S 2 | 10.00 | Partly Cloudy | SCT080 SCT085 | 57.2 | 55.4 | 94% | 30.09 | 0.0 | |||||||
| 28 | 22:35 | SW 2 | 10.00 | Fair | CLR | 57.2 | 55.4 | 94% | 30.1 | 0.0 | |||||||
| 28 | 22:15 | SW 1 | 10.00 | Partly Cloudy | SCT075 | 59 | 55.4 | 88% | 30.1 | 0.0 | |||||||
| 28 | 21:55 | S 2 | 10.00 | A Few Clouds | FEW050 FEW080 | 59 | 55.4 | 88% | 30.1 | 0.0 | |||||||
| 28 | 21:35 | SE 2 | 10.00 | Mostly Cloudy | SCT050 BKN080 | 59 | 57.2 | 94% | 30.1 | 0.0 | |||||||
| 28 | 21:15 | Calm | 10.00 | Partly Cloudy | SCT050 SCT065 SCT085 | 59 | 57.2 | 94% | 30.1 | 0.0 | |||||||
| 28 | 20:55 | S 6 | 10.00 | Overcast | BKN048 BKN055 OVC065 | 60.8 | 57.2 | 88% | 30.09 | 0.0 | |||||||
| 28 | 20:35 | SE 2 | 10.00 | Mostly Cloudy | BKN048 BKN060 BKN080 | 62.6 | 57.2 | 83% | 30.09 | 0.0 | |||||||
| 28 | 20:15 | E 2 | 10.00 | A Few Clouds | FEW060 FEW075 | 62.6 | 57.2 | 83% | 30.09 | 0.0 | |||||||
| Date | Time (edt) | Wind (mph) | Vis. (mi.) | Weather | Sky Cond. | Air | Dwpt | Max. | Min. | Relative Humidity | Wind Chill (°F) | Heat Index (°F) | altimeter (in) | sea level (mb) | 1 hr | 3 hr | 6 hr |
| 6 hour | |||||||||||||||||
| Temperature (ºF) | Pressure | Precipitation (in) | |||||||||||||||